| time (UTC) | temp F | wind direction | speed knots | gust knots | rain 1hr in | rain 24hr in | rain mn in | humidity % | barometer mb |
| 20260904060506 | 69 | 297 | 1.7 | 4.3 | 0.00 | 0.00 | 0.00 | 84 | 1016.9 |
| 20260904060005 | 68 | 271 | 1.7 | 6.1 | 0.00 | 0.00 | 0.00 | 85 | 1017.1 |
| 20260904054506 | 68 | 291 | 1.7 | 7.0 | 0.00 | 0.00 | 0.00 | 86 | 1017.6 |
| 20260904053506 | 67 | 296 | 2.6 | 6.1 | 0.00 | 0.00 | 0.00 | 87 | 1017.3 |
| 20260904051505 | 66 | 247 | 3.5 | 4.3 | 0.00 | 0.00 | 0.00 | 88 | 1017.3 |
| 20260904051005 | 66 | 262 | 0.9 | 2.6 | 0.00 | 0.00 | 0.00 | 89 | 1017.3 |
| 20260904050506 | 66 | 274 | 0.9 | 1.7 | 0.00 | 0.00 | 0.00 | 89 | 1017.3 |
| 20260904050007 | 65 | 275 | 0.0 | 2.6 | 0.00 | 0.00 | 0.00 | 90 | 1017.3 |
| 20260904044506 | 65 | 275 | 0.0 | 2.6 | 0.00 | 0.00 | 0.00 | 92 | 1017.4 |
| 20260904044005 | 65 | 276 | 0.0 | 0.0 | 0.00 | 0.00 | 0.00 | 92 | 1017.3 |
| 20260904043506 | 65 | 276 | 0.0 | 0.0 | 0.00 | 0.00 | 0.00 | 92 | 1017.3 |
| 20260904043006 | 65 | 276 | 0.0 | 0.0 | 0.00 | 0.00 | 0.00 | 92 | 1017.3 |
| 20260904041506 | 65 | 276 | 0.0 | 0.0 | 0.00 | 0.00 | 0.00 | 92 | 1017.5 |
| 20260904040506 | 65 | 276 | 0.0 | 0.0 | 0.00 | 0.00 | 0.00 | 92 | 1017.6 |
| 20260904040005 | 65 | 277 | 0.0 | 0.0 | 0.00 | 0.00 | 0.00 | 92 | 1017.6 |
| 20260904034506 | 64 | 277 | 0.0 | 0.0 | 0.00 | 0.00 | 0.00 | 93 | 1017.9 |
| 20260904034007 | 64 | 277 | 0.0 | 0.0 | 0.00 | 0.00 | 0.00 | 93 | 1017.9 |
| 20260904033005 | 63 | 276 | 0.0 | 1.7 | 0.00 | 0.00 | 0.00 | 93 | 1017.9 |
| 20260904031504 | 63 | 275 | 0.0 | 1.7 | 0.00 | 0.00 | 0.00 | 93 | 1017.9 |
| 20260904031006 | 63 | 275 | 0.9 | 2.6 | 0.00 | 0.00 | 0.00 | 93 | 1018.1 |
| 20260904030506 | 63 | 275 | 0.0 | 0.0 | 0.00 | 0.00 | 0.00 | 93 | 1018.3 |
| 20260904030005 | 63 | 275 | 0.0 | 2.6 | 0.00 | 0.00 | 0.00 | 93 | 1018.3 |
| 20260904024506 | 63 | 274 | 1.7 | 2.6 | 0.00 | 0.00 | 0.00 | 92 | 1018.3 |
| 20260904023505 | 63 | 277 | 0.0 | 0.0 | 0.00 | 0.00 | 0.00 | 92 | 1018.3 |
| 20260904023005 | 63 | 276 | 0.0 | 2.6 | 0.00 | 0.00 | 0.00 | 92 | 1018.3 |
| 20260904021505 | 63 | 275 | 1.7 | 1.7 | 0.00 | 0.00 | 0.00 | 93 | 1018.6 |
| 20260904021005 | 62 | 275 | 0.9 | 1.7 | 0.00 | 0.00 | 0.00 | 92 | 1018.3 |
| 20260904020506 | 62 | 274 | 0.0 | 1.7 | 0.00 | 0.00 | 0.00 | 92 | 1018.3 |
| 20260904020005 | 62 | 274 | 0.0 | 1.7 | 0.00 | 0.00 | 0.00 | 92 | 1018.4 |
| 20260904014507 | 62 | 274 | 0.0 | 1.7 | 0.00 | 0.00 | 0.00 | 91 | 1018.4 |
| 20260904014006 | 63 | 262 | 0.0 | 0.0 | 0.00 | 0.00 | 0.00 | 90 | 1018.6 |
| 20260904013505 | 63 | 261 | 0.0 | 0.0 | 0.00 | 0.00 | 0.00 | 90 | 1018.6 |
| 20260904013005 | 64 | 246 | 0.0 | 0.0 | 0.00 | 0.00 | 0.00 | 91 | 1018.6 |
| 20260904011005 | 64 | 246 | 0.0 | 0.0 | 0.00 | 0.00 | 0.00 | 89 | 1018.8 |
| 20260904010505 | 65 | 246 | 0.0 | 0.0 | 0.00 | 0.00 | 0.00 | 89 | 1019.0 |
| 20260904010005 | 65 | 246 | 0.0 | 0.0 | 0.00 | 0.00 | 0.00 | 89 | 1019.0 |
| 20260904004005 | 65 | 271 | 0.0 | 2.6 | 0.00 | 0.00 | 0.00 | 89 | 1019.0 |
| 20260904003506 | 64 | 233 | 0.0 | 0.0 | 0.00 | 0.00 | 0.00 | 89 | 1019.0 |
| 20260904003005 | 64 | 233 | 0.0 | 0.0 | 0.00 | 0.00 | 0.00 | 89 | 1019.0 |
| 20260904001005 | 65 | 236 | 0.0 | 1.7 | 0.00 | 0.00 | 0.00 | 87 | 1019.0 |
| 20260904000506 | 65 | 252 | 0.0 | 1.7 | 0.00 | 0.00 | 0.00 | 87 | 1019.0 |
| 20260903234505 | 66 | 211 | 1.7 | 2.6 | 0.00 | 0.00 | 0.00 | 86 | 1019.1 |
| 20260903234005 | 66 | 273 | 0.0 | 1.7 | 0.00 | 0.00 | 0.00 | 86 | 1019.3 |
| 20260903233505 | 66 | 273 | 0.0 | 1.7 | 0.00 | 0.00 | 0.00 | 86 | 1019.3 |
| 20260903233005 | 66 | 273 | 0.0 | 0.0 | 0.00 | 0.00 | 0.00 | 86 | 1019.3 |
| 20260903231005 | 66 | 246 | 0.0 | 2.6 | 0.00 | 0.00 | 0.00 | 85 | 1019.5 |
| 20260903230506 | 66 | 242 | 0.0 | 1.7 | 0.00 | 0.00 | 0.00 | 86 | 1019.3 |
| 20260903230004 | 66 | 256 | 0.0 | 1.7 | 0.00 | 0.00 | 0.00 | 86 | 1019.6 |
| 20260903224506 | 66 | 244 | 0.0 | 0.0 | 0.00 | 0.00 | 0.00 | 85 | 1019.6 |
| 20260903224004 | 67 | 249 | 0.0 | 0.0 | 0.00 | 0.00 | 0.00 | 84 | 1019.6 |
| 20260903223005 | 68 | 252 | 0.0 | 2.6 | 0.00 | 0.00 | 0.00 | 82 | 1019.6 |
| 20260903220005 | 70 | 236 | 0.9 | 2.6 | 0.00 | 0.00 | 0.00 | 79 | 1019.9 |
| 20260903214506 | 70 | 273 | 1.7 | 2.6 | 0.00 | 0.00 | 0.00 | 78 | 1019.6 |
| 20260903214004 | 70 | 249 | 0.9 | 1.7 | 0.00 | 0.00 | 0.00 | 78 | 1019.8 |
| 20260903213504 | 70 | 239 | 0.0 | 1.7 | 0.00 | 0.00 | 0.00 | 78 | 1019.6 |
| 20260903213004 | 70 | 221 | 0.9 | 4.3 | 0.00 | 0.00 | 0.00 | 77 | 1019.6 |
| 20260903211505 | 70 | 267 | 1.7 | 4.3 | 0.00 | 0.00 | 0.00 | 77 | 1019.6 |
| 20260903211004 | 70 | 259 | 0.9 | 2.6 | 0.00 | 0.00 | 0.00 | 77 | 1019.9 |
| 20260903210505 | 70 | 297 | 0.9 | 4.3 | 0.00 | 0.00 | 0.00 | 77 | 1019.6 |
| 20260903210004 | 70 | 264 | 0.9 | 2.6 | 0.00 | 0.00 | 0.00 | 76 | 1019.8 |
| 20260903204505 | 70 | 309 | 1.7 | 2.6 | 0.00 | 0.00 | 0.00 | 76 | 1019.9 |
| 20260903204004 | 70 | 265 | 0.9 | 2.6 | 0.00 | 0.00 | 0.00 | 76 | 1019.8 |
| 20260903203504 | 70 | 213 | 0.9 | 4.3 | 0.00 | 0.00 | 0.00 | 76 | 1019.6 |
| 20260903203005 | 69 | 271 | 2.6 | 6.1 | 0.00 | 0.00 | 0.00 | 77 | 1019.6 |
| 20260903201505 | 70 | 278 | 1.7 | 6.1 | 0.00 | 0.00 | 0.00 | 75 | 1019.7 |
| 20260903201005 | 70 | 275 | 2.6 | 4.3 | 0.00 | 0.00 | 0.00 | 75 | 1019.6 |
| 20260903200505 | 71 | 276 | 2.6 | 4.3 | 0.00 | 0.00 | 0.00 | 74 | 1019.6 |
| 20260903200005 | 71 | 279 | 2.6 | 6.1 | 0.00 | 0.00 | 0.00 | 74 | 1019.6 |
| 20260903194505 | 71 | 283 | 3.5 | 6.1 | 0.00 | 0.00 | 0.00 | 74 | 1020.0 |
| 20260903194005 | 71 | 272 | 4.3 | 6.1 | 0.00 | 0.00 | 0.00 | 74 | 1019.8 |
| 20260903193505 | 71 | 276 | 1.7 | 2.6 | 0.00 | 0.00 | 0.00 | 73 | 1019.9 |
| 20260903193005 | 72 | 287 | 1.7 | 6.1 | 0.00 | 0.00 | 0.00 | 72 | 1019.6 |
| 20260903191504 | 71 | 278 | 1.7 | 2.6 | 0.00 | 0.00 | 0.00 | 73 | 1019.8 |
| 20260903191005 | 71 | 280 | 1.7 | 2.6 | 0.00 | 0.00 | 0.00 | 73 | 1019.6 |
| 20260903190506 | 71 | 276 | 0.9 | 2.6 | 0.00 | 0.00 | 0.00 | 71 | 1019.6 |
| 20260903190005 | 71 | 258 | 1.7 | 2.6 | 0.00 | 0.00 | 0.00 | 72 | 1019.8 |
| 20260903184506 | 72 | 268 | 0.0 | 2.6 | 0.00 | 0.00 | 0.00 | 71 | 1019.6 |
| 20260903184005 | 72 | 268 | 0.0 | 0.0 | 0.00 | 0.00 | 0.00 | 71 | 1019.6 |
| 20260903183004 | 73 | 273 | 0.9 | 4.3 | 0.00 | 0.00 | 0.00 | 68 | 1019.7 |
| 20260903181504 | 74 | 274 | 1.7 | 4.3 | 0.00 | 0.00 | 0.00 | 66 | 1019.9 |
| 20260903181005 | 74 | 244 | 1.7 | 2.6 | 0.00 | 0.00 | 0.00 | 65 | 1020.0 |
| 20260903180505 | 74 | 229 | 1.7 | 2.6 | 0.00 | 0.00 | 0.00 | 65 | 1020.0 |
| 20260903180004 | 74 | 277 | 0.9 | 6.1 | 0.00 | 0.00 | 0.00 | 64 | 1019.7 |
| 20260903174505 | 75 | 281 | 0.9 | 6.1 | 0.00 | 0.00 | 0.00 | 64 | 1019.9 |
| 20260903174004 | 75 | 242 | 1.7 | 8.7 | 0.00 | 0.00 | 0.00 | 64 | 1019.6 |
| 20260903173504 | 75 | 280 | 1.7 | 8.7 | 0.00 | 0.00 | 0.00 | 64 | 1019.6 |
| 20260903173004 | 75 | 219 | 2.6 | 12.2 | 0.00 | 0.00 | 0.00 | 64 | 1019.6 |
| 20260903171504 | 75 | 262 | 1.7 | 4.3 | 0.00 | 0.00 | 0.00 | 63 | 1019.6 |
| 20260903171004 | 75 | 272 | 1.7 | 6.1 | 0.00 | 0.00 | 0.00 | 63 | 1019.5 |
| 20260903170505 | 75 | 261 | 0.9 | 2.6 | 0.00 | 0.00 | 0.00 | 63 | 1019.6 |
| 20260903164504 | 76 | 287 | 1.7 | 6.1 | 0.00 | 0.00 | 0.00 | 60 | 1019.4 |
| 20260903164004 | 76 | 292 | 1.7 | 7.0 | 0.00 | 0.00 | 0.00 | 59 | 1019.3 |
| 20260903161505 | 76 | 276 | 5.2 | 12.2 | 0.00 | 0.00 | 0.00 | 58 | 1019.2 |
| 20260903161004 | 76 | 271 | 3.5 | 7.0 | 0.00 | 0.00 | 0.00 | 58 | 1019.2 |
| 20260903160505 | 77 | 317 | 4.3 | 7.0 | 0.00 | 0.00 | 0.00 | 58 | 1019.1 |
| 20260903160004 | 77 | 300 | 2.6 | 11.3 | 0.00 | 0.00 | 0.00 | 58 | 1019.1 |
| 20260903154505 | 77 | 276 | 5.2 | 8.7 | 0.00 | 0.00 | 0.00 | 56 | 1019.4 |
| 20260903154004 | 77 | 310 | 5.2 | 8.7 | 0.00 | 0.00 | 0.00 | 56 | 1019.5 |
| 20260903153505 | 77 | 253 | 3.5 | 11.3 | 0.00 | 0.00 | 0.00 | 56 | 1019.3 |
| 20260903153005 | 77 | 293 | 6.1 | 11.3 | 0.00 | 0.00 | 0.00 | 56 | 1019.6 |
| 20260903151505 | 77 | 257 | 2.6 | 6.1 | 0.00 | 0.00 | 0.00 | 56 | 1019.4 |
| 20260903151005 | 77 | 295 | 4.3 | 11.3 | 0.00 | 0.00 | 0.00 | 56 | 1019.5 |
| 20260903150505 | 77 | 267 | 6.1 | 11.3 | 0.00 | 0.00 | 0.00 | 55 | 1019.6 |
| 20260903150004 | 77 | 248 | 4.3 | 14.8 | 0.00 | 0.00 | 0.00 | 55 | 1019.6 |
| 20260903144004 | 78 | 291 | 3.5 | 8.7 | 0.00 | 0.00 | 0.00 | 54 | 1019.3 |
| 20260903143504 | 78 | 287 | 3.5 | 8.7 | 0.00 | 0.00 | 0.00 | 53 | 1019.5 |
| 20260903143005 | 78 | 253 | 7.8 | 13.0 | 0.00 | 0.00 | 0.00 | 53 | 1019.3 |
| 20260903141505 | 79 | 309 | 4.3 | 7.0 | 0.00 | 0.00 | 0.00 | 51 | 1019.3 |
| 20260903141004 | 78 | 298 | 2.6 | 14.8 | 0.00 | 0.00 | 0.00 | 52 | 1019.3 |
| 20260903140505 | 78 | 237 | 4.3 | 12.2 | 0.00 | 0.00 | 0.00 | 53 | 1019.3 |
| 20260903140004 | 77 | 223 | 4.3 | 19.1 | 0.00 | 0.00 | 0.00 | 52 | 1019.3 |
| 20260903134504 | 78 | 302 | 4.3 | 8.7 | 0.00 | 0.00 | 0.00 | 52 | 1019.6 |
| 20260903134004 | 80 | 268 | 5.2 | 8.7 | 0.00 | 0.00 | 0.00 | 52 | 1019.5 |
| 20260903133504 | 80 | 295 | 1.7 | 8.7 | 0.00 | 0.00 | 0.00 | 50 | 1019.5 |
| 20260903133004 | 79 | 265 | 5.2 | 11.3 | 0.00 | 0.00 | 0.00 | 51 | 1019.6 |
| 20260903131504 | 77 | 271 | 4.3 | 13.0 | 0.00 | 0.00 | 0.00 | 52 | 1019.3 |
| 20260903131004 | 78 | 304 | 6.1 | 12.2 | 0.00 | 0.00 | 0.00 | 52 | 1019.5 |
| 20260903130004 | 78 | 296 | 7.8 | 12.2 | 0.00 | 0.00 | 0.00 | 53 | 1019.5 |
| 20260903124504 | 79 | 286 | 6.1 | 8.7 | 0.00 | 0.00 | 0.00 | 52 | 1019.6 |
| 20260903124004 | 79 | 296 | 2.6 | 6.1 | 0.00 | 0.00 | 0.00 | 52 | 1019.6 |
| 20260903123504 | 78 | 287 | 2.6 | 7.0 | 0.00 | 0.00 | 0.00 | 52 | 1019.6 |
| 20260903123004 | 77 | 276 | 1.7 | 12.2 | 0.00 | 0.00 | 0.00 | 53 | 1019.6 |
| 20260903121504 | 76 | 289 | 7.0 | 12.2 | 0.00 | 0.00 | 0.00 | 54 | 1019.6 |
| 20260903121004 | 76 | 274 | 6.1 | 14.8 | 0.00 | 0.00 | 0.00 | 54 | 1019.8 |
| 20260903120504 | 77 | 326 | 6.1 | 11.3 | 0.00 | 0.00 | 0.00 | 54 | 1019.6 |
| 20260903120004 | 77 | 262 | 2.6 | 11.3 | 0.00 | 0.00 | 0.00 | 53 | 1019.6 |
| 20260903114005 | 77 | 296 | 2.6 | 7.0 | 0.00 | 0.00 | 0.00 | 54 | 1019.6 |
| 20260903111504 | 74 | 273 | 4.3 | 12.2 | 0.00 | 0.00 | 0.00 | 58 | 1020.2 |
| 20260903111004 | 74 | 242 | 8.7 | 18.2 | 0.00 | 0.00 | 0.00 | 57 | 1020.1 |
| 20260903110505 | 74 | 260 | 8.7 | 18.2 | 0.00 | 0.00 | 0.00 | 57 | 1020.3 |
| 20260903110004 | 75 | 251 | 5.2 | 12.2 | 0.00 | 0.00 | 0.00 | 56 | 1020.1 |
| 20260903104504 | 75 | 292 | 7.0 | 12.2 | 0.00 | 0.00 | 0.00 | 56 | 1019.6 |
| 20260903104005 | 75 | 288 | 5.2 | 19.1 | 0.00 | 0.00 | 0.00 | 56 | 1019.6 |
| 20260903103504 | 75 | 268 | 7.8 | 18.2 | 0.00 | 0.00 | 0.00 | 56 | 1019.6 |
| 20260903103004 | 75 | 275 | 11.3 | 19.1 | 0.00 | 0.00 | 0.00 | 56 | 1020.0 |
| 20260903101504 | 75 | 302 | 5.2 | 8.7 | 0.00 | 0.00 | 0.00 | 56 | 1020.1 |
| 20260903101004 | 75 | 302 | 5.2 | 8.7 | 0.00 | 0.00 | 0.00 | 57 | 1020.2 |
| 20260903100505 | 74 | 285 | 5.2 | 15.6 | 0.00 | 0.00 | 0.00 | 56 | 1020.3 |
| 20260903100004 | 75 | 270 | 11.3 | 15.6 | 0.00 | 0.00 | 0.00 | 56 | 1020.1 |
| 20260903094505 | 73 | 311 | 4.3 | 12.2 | 0.00 | 0.00 | 0.00 | 57 | 1020.3 |
| 20260903093504 | 74 | 297 | 4.3 | 11.3 | 0.00 | 0.00 | 0.00 | 57 | 1020.3 |
| 20260903093006 | 74 | 310 | 1.7 | 11.3 | 0.00 | 0.00 | 0.00 | 57 | 1020.3 |
| 20260903091505 | 73 | 267 | 6.1 | 13.0 | 0.00 | 0.00 | 0.00 | 58 | 1020.7 |
| 20260903091005 | 73 | 291 | 1.7 | 7.0 | 0.00 | 0.00 | 0.00 | 59 | 1020.7 |
| 20260903090506 | 73 | 244 | 3.5 | 4.3 | 0.00 | 0.00 | 0.00 | 60 | 1020.7 |
| 20260903090005 | 71 | 271 | 1.7 | 4.3 | 0.00 | 0.00 | 0.00 | 63 | 1020.7 |
| 20260903084506 | 68 | 277 | 1.7 | 6.1 | 0.00 | 0.00 | 0.00 | 67 | 1020.7 |
| 20260903084005 | 68 | 285 | 4.3 | 7.0 | 0.00 | 0.00 | 0.00 | 68 | 1020.7 |
| 20260903083505 | 67 | 302 | 2.6 | 4.3 | 0.00 | 0.00 | 0.00 | 69 | 1020.7 |
| 20260903083006 | 67 | 279 | 1.7 | 4.3 | 0.00 | 0.00 | 0.00 | 71 | 1020.7 |
| 20260903081005 | 67 | 274 | 1.7 | 2.6 | 0.00 | 0.00 | 0.00 | 72 | 1020.7 |
| 20260903080507 | 68 | 250 | 1.7 | 2.6 | 0.00 | 0.00 | 0.00 | 70 | 1020.7 |
| 20260903080005 | 67 | 279 | 0.0 | 4.3 | 0.00 | 0.00 | 0.00 | 71 | 1020.7 |
| 20260903074506 | 64 | 282 | 1.7 | 2.6 | 0.00 | 0.00 | 0.00 | 76 | 1021.0 |
| 20260903074005 | 63 | 271 | 1.7 | 2.6 | 0.00 | 0.00 | 0.00 | 77 | 1021.0 |
| 20260903073505 | 63 | 276 | 2.6 | 4.3 | 0.00 | 0.00 | 0.00 | 79 | 1021.0 |
| 20260903073005 | 63 | 295 | 1.7 | 4.3 | 0.00 | 0.00 | 0.00 | 78 | 1020.7 |
| 20260903071506 | 62 | 249 | 0.0 | 0.0 | 0.00 | 0.00 | 0.00 | 79 | 1020.9 |
| 20260903071005 | 61 | 230 | 0.9 | 1.7 | 0.00 | 0.00 | 0.00 | 81 | 1021.0 |
| 20260903070506 | 60 | 184 | 0.9 | 1.7 | 0.00 | 0.00 | 0.00 | 83 | 1021.0 |
| 20260903070006 | 59 | 203 | 0.0 | 2.6 | 0.00 | 0.00 | 0.00 | 85 | 1021.3 |
| 20260903064005 | 58 | 253 | 0.0 | 0.0 | 0.00 | 0.00 | 0.00 | 87 | 1021.3 |
| 20260903063506 | 57 | 258 | 0.0 | 1.7 | 0.00 | 0.00 | 0.00 | 88 | 1021.2 |
| 20260903063005 | 56 | 294 | 0.0 | 2.6 | 0.00 | 0.00 | 0.00 | 89 | 1021.0 |
| 20260903061505 | 56 | 290 | 0.0 | 1.7 | 0.00 | 0.00 | 0.00 | 90 | 1021.3 |
| 20260903061006 | 56 | 257 | 0.9 | 2.6 | 0.00 | 0.00 | 0.00 | 89 | 1021.3 |